Member area
Imprimable
Torhout, 22/06/2018, BEL - Nacht van West-Vlaanderen
List of reports > Half Marathon - Result
Search: Page: [1]
73 Entries
 
Complains are not accepted anymore. Results are final.
PlaceNrNameAgeNATTeamRealTimeTkmMoy.ScrCity
1.1002FDEKETELAERE Annelies32BEL1:18:511:18:533:45 16.0514HOOGLEDE
2.1003FBUTSERAEN Emilie26BEL1:28:321:28:354:12 14.2970OOSTDUINKERKE
3.1496FVANDEPOELE Saïn27BELAZ DELTA1:35:241:36:034:34 13.18148HEULE
4.1531FVAN HOECKE Katrijn32BEL1:37:171:38:234:40 12.87170EVERGEM
5.1055FBUSSCHAERT Sofie33BEL1:38:511:39:174:43 12.75189POELKAPELLE
6.1511FVANDEWAETERE Kim34BELDAP DE KAMERAAD1:39:301:39:584:45 12.66200TORHOUT
7.1412FROELS Toos33BEL1:44:171:44:254:57 12.12266BRUGGE
8.1178FDESCHEEMAECKER Hanne27BEL1:44:161:44:594:59 12.06276IZEGEM
9.1605FVLEUGELS Jasmine28BEL1:44:591:45:315:01 12.00286KONTICH
10.1912FDECONINCK Jozefien28BEL1:45:121:46:055:02 11.93300ROESELARE
11.1127FDECLERCK Sofie29BELAZ DELTA1:47:061:47:225:06 11.79317LICHTERVELDE
12.1078FCLINCKE Marieke34BEL1:48:031:48:365:09 11.66340WINGENE
13.1242FFORTRY Ellen34BEL1:48:551:49:415:12 11.54365DIKSMUIDE
14.1904FSTEELANDT Cathy35BEL1:49:371:50:305:15 11.46384EERNEGEM
15.1372FNOLLET Sara26BEL1:50:241:50:555:16 11.41389TORHOUT
16.1996FVANWAMBEKE Isis24BEL1:50:471:51:465:18 11.33404OUDENAARDE
17.1298FKINDS Annelore33BEL1:52:521:53:195:23 11.17428SNAASKERKE
18.1551FVANROOSE Jill31BELTEMPO KOEKELARE1:52:501:53:425:24 11.13442EERNEGEM
19.1310FLANNOO Annelore30BEL1:54:061:54:595:28 11.01468ARDOOIE
20.1597FVERVELGHE Kimberly34BEL1:54:521:55:015:28 11.01471ZWEVEGEM
21.1871FSEYS Karolien32BEL1:54:371:55:165:28 10.98478OOSTKAMP
22.1210FD'HOOGHE Emily24BEL1:54:421:55:375:29 10.95488MOORSLEDE
23.1222FDUQUENOY Aurélie26BEL1:55:241:56:035:31 10.91506EMELGEM
24.1529FVANHEE Kylie29BELAZ DELTA1:55:441:56:085:31 10.90510VELDEGEM
25.1065FCARPENTIER Kaat26BEL1:55:561:57:125:34 10.80522HOOGLEDE
26.1014FVERCRUYSSE Marieke30BEL1:57:151:58:265:37 10.69535VLADSLO
27.1567FVERCRUYSSE Lieke25BEL1:57:151:58:265:37 10.69536STADEN
28.1259FGOEMINNE Karen34BEL1:57:421:58:395:38 10.67547RUISELEDE
29.1522FVAN EENOO Mieke32BEL1:58:311:58:485:38 10.66550DIKSMUIDE
30.1422FRUYSSCHAERT Valerie27BEL1:59:121:59:465:41 10.57555ARDOOIE
31.1488FVANDENBERGHE Wendy30BELMOLENLOPERS1:59:032:00:155:42 10.53569BEKEGEM
32.1018FAERBEYDT Lara26BEL2:00:102:00:165:43 10.53570ROESELARE
33.1173FDEROUS Stefanie35BELAZ DELTA1:59:172:00:195:43 10.52571TORHOUT
34.1507FVAN DE VEIRE Hanne27BEL1:59:442:00:525:44 10.47577TORHOUT
35.1037FBLEU Astrid28BEL2:01:292:02:195:48 10.35592JABBEKE
36.1286FJACOB Kaatje32BEL2:01:212:02:365:49 10.33596HAMME
37.1486FVAN DEN ABEELE Ine34BEL2:02:542:02:565:50 10.30600TORHOUT
38.1131FDECOENE Stefanie27BEL2:02:532:03:505:53 10.22608ZWEVEZELE
39.1304FLAISNEZ Marie22BEL2:02:532:03:505:53 10.22609SINT-ANDRIES
40.1331FLIN Juu Shyun33TWN2:03:272:03:595:53 10.21610NEW TAIPEI CITY, SANCHONG AREA
41.1357FMOERMAN Laura27BEL2:04:002:04:285:54 10.17623GITS
42.1413FROETS Clio33BEL2:04:072:05:155:57 10.11629OOSTKAMP
43.1159FDE MILDE Sofie30BEL2:05:322:06:186:00 10.02640SNELLEGEM
44.1181FDESEURE Emmely25BEL2:05:332:06:236:00 10.02641IZEGEM
45.1479FVANDAMME Céline27BEL2:06:092:07:236:03 9.94644RUDDERVOORDE
46.1084FCONSTANT Aurelie27BEL2:06:112:07:246:03 9.94645WINGENE
47.1431FSARRAZYN Nathalie33BEL2:06:392:07:496:04 9.90650LEISELE
48.1161FDE MUYNCK Eline32BEL2:08:372:09:456:09 9.76660ZEDELGEM
49.1602FVICTOR Véronique32BEL2:08:372:09:456:09 9.76661TORHOUT
50.1864FVLAEMYNCK Annelies17BEL2:10:012:11:116:14 9.65672
51.1960FPAGE Laura33BEL2:11:402:12:396:18 9.54679TIELT
52.1620FCLEMENT Marie Laure30BELDAIKIN RUNNING TEAM2:09:552:13:026:19 9.52681OOSTKAMP
53.1234FFERLIN Jessica29BEL2:12:292:13:286:20 9.49685WERVIK
54.1509FVANDEVELDE Linsey34BEL2:12:292:13:286:20 9.49686WERVIK
55.1549FVANPOUCKE Jolien27BEL2:12:492:13:436:21 9.47690KOOLSKAMP
56.1866FDEBEUCKELAERE Lies26BEL2:13:022:13:556:21 9.45692AARTRIJKE
57.1120FDEBREUCK Marlies32BEL2:12:352:13:586:21 9.45693POPERINGE
58.1315FLAUWERS Delfien31BEL2:12:362:13:596:22 9.45694ELVERDINGE
59.1034FBERTEN Lies34BEL2:12:572:14:206:23 9.42696WERVIK
60.1090FCORTVRIENDT Annelore33BLZBRASSERIE HEUVELHOF2:14:172:15:216:25 9.35699TORHOUT
61.1091FCORTVRIENDT Lore33BELBRASSERIE HEUVELHOF2:14:182:15:216:25 9.35700TORHOUT
62.1098FCOYSMAN Sien33BEL2:14:472:15:546:27 9.32702SINT-GILLIS-WAAS
63.1294FKENNOF Aline28BELBELGIE2:14:472:15:546:27 9.32703DENDERMONDE
64.1246FGEKIERE Caroline35BEL2:14:472:15:546:27 9.32704WORTEGEM
65.1579FVERLE Tessa29BEL2:16:362:17:346:32 9.20707SCHENDELBEKE
66.1150FDELEYE Isabelle24BEL2:17:192:18:306:34 9.14708MENEN
67.1320FLEFEBER Nina26BEL2:17:392:18:456:35 9.12711SINT-JANS-MOLENBEEK
68.1614FWILLEMS Saskia25BEL2:19:002:20:066:39 9.04714SCHELDERODE
69.1266FGRYP Tessa28BEL2:23:102:24:026:50 8.79724ZUIENKERKE
70.1333FLOGIE Nele26BELBVBA MARYSSE PETER2:25:302:25:426:55 8.69728BEVEREN LEIE
71.1988FVANDUYGHUIS Josephine19BEL2:27:012:27:357:00 8.58731STADEN
72.1312FLAPERE Lieselotte34BEL2:31:202:32:327:14 8.30738KORTRIJK
73.1107FDE BACKER Shirley26BEL2:33:012:33:587:18 8.22739SCHENDELBEKE
DNF: did not finish; DSQ: disqualified; Speed in km/h
Page: [1]